[[{"header":{"parameterUnit":"m.s-1","parameterCategory":1,"la1":30.2991,"la2":30.254,"lo1":-89.0895,"lo2":-89.0444,"dy":0.0017,"dx":0.0017,"nx":28,"ny":28,"refTime":"2024-04-08T03:00:00:Z","depth":0,"parameterNumber":2,"parameterNumberName":"U-component_of_WINDS"},"data":[0,0,0,0,0,0,0,0,0,0,0,0,0,0,0,0,0,0,0,0,0,0,0,0,0,0,0,0,0,0,0,0,0,0,0,0,0,0,0,0,0,0,0,0,0,0,0,0,0,0,0,0,0,0,0,0,0,0,-5.8413,-5.8413,0,-5.8494,-5.8495,-5.8496,-5.8468,-5.8467,-5.8465,-5.8463,-5.8545,-5.8549,-5.8552,0,0,0,0,0,0,0,0,0,0,0,0,0,-5.8233,-5.8236,-5.8412,-5.8414,-5.8415,-5.8494,-5.8495,-5.8496,-5.8469,-5.8467,-5.8464,-5.8462,-5.8544,-5.8548,-5.8553,0,0,0,0,0,0,0,0,0,0,0,0,0,-5.8312,-5.8237,-5.8412,-5.8411,-5.8411,-5.8493,-5.8495,-5.8496,-5.8469,-5.8467,-5.8464,-5.8461,-5.8542,-5.8548,-5.8553,-5.8642,0,0,-5.8571,-5.8573,0,0,0,0,0,0,0,0,-5.8307,-5.8319,-5.841,-5.8411,-5.8412,-5.8468,-5.8461,-5.8545,-5.847,-5.8447,-5.8463,-5.846,-5.8521,-5.8529,-5.855,-5.8646,-5.8649,-5.8571,-5.8575,-5.8577,-5.8579,0,0,0,0,0,0,0,-5.8302,-5.8315,-5.8445,-5.8411,-5.8412,-5.8405,-5.8414,-5.8477,-5.8498,-5.8449,-5.8447,-5.8457,-5.8521,-5.8544,-5.8551,-5.865,-5.8571,-5.8576,-5.858,-5.8582,-5.8822,-5.8824,0,0,0,0,0,0,-5.8296,-5.831,-5.8442,-5.8447,-5.8352,-5.8411,-5.842,-5.8453,-5.8497,-5.8502,-5.8459,-5.8456,-5.8536,-5.8545,-5.8554,-5.8659,-5.8577,-5.8583,-5.8586,-5.8819,-5.8822,-5.8825,0,0,0,0,0,0,-5.8292,-5.8308,-5.8439,-5.8378,-5.8394,-5.8417,-5.8454,-5.8456,-5.8478,-5.8505,-5.8509,-5.8479,-5.8534,-5.8546,-5.862,-5.8661,-5.8585,-5.859,-5.8815,-5.882,-5.8824,-5.8869,0,0,0,0,0,0,-5.8287,-5.8307,-5.8341,-5.8379,-5.8398,-5.8503,-5.8456,-5.8459,-5.8489,-5.8484,-5.8524,-5.8528,-5.8533,-5.8612,-5.8626,-5.8668,-5.8595,-5.8811,-5.8817,-5.8822,-5.8864,-5.8875,-5.8884,0,0,0,0,0,-5.8281,-5.835,-5.8343,-5.8359,-5.8441,-5.8506,-5.8516,-5.852,-5.8492,-5.8526,-5.8543,-5.8527,-5.8656,-5.8619,-5.8635,-5.8679,-5.8809,-5.8816,-5.8822,-5.886,-5.8873,-5.8884,0,0,0,0,0,0,-5.8315,-5.8355,-5.8347,-5.8431,-5.8465,-5.8501,-5.8544,-5.8534,-5.8577,-5.8571,-5.8574,-5.8583,-5.8659,-5.8677,-5.8636,-5.8767,-5.8728,-5.8738,-5.8751,-5.8764,-5.8773,-5.8766,-5.86,0,0,0,0,0,-5.8333,-5.8383,-5.8415,-5.8486,-5.8504,-5.8521,-5.855,-5.855,-5.8585,-5.8599,-5.8622,-5.8657,-5.8705,-5.8736,-5.8782,-5.8868,-5.8876,-5.8907,-5.8917,-5.8925,-5.8932,-5.8977,-5.8991,-5.8847,-5.8847,-5.8847,0,0,-5.8369,-5.8397,-5.8428,-5.8494,-5.852,-5.8571,-5.8533,-5.8589,-5.8626,-5.8608,-5.8678,-5.8697,-5.8735,-5.8816,-5.8852,-5.8833,-5.8974,-5.8933,-5.8939,-5.8942,-5.8986,-5.8999,-5.9011,-5.8851,-5.8851,-5.885,0,0,-5.846,-5.8488,-5.8548,-5.8576,-5.8617,-5.8629,-5.8644,-5.8681,-5.8693,-5.8764,-5.8751,-5.8796,-5.8879,-5.8906,-5.8931,-5.9035,-5.9021,-5.905,-5.91,-5.9144,-5.9156,-5.9166,-5.92,-5.9212,-5.9058,-5.9059,-5.9059,0,-5.8499,-5.8575,-5.8581,-5.8638,-5.8666,-5.8654,-5.8715,-5.8742,-5.8795,-5.8815,-5.8794,-5.8897,-5.8923,-5.9008,-5.9034,-5.9056,-5.9071,-5.9043,-5.9154,-5.9164,-5.9173,-5.9206,-5.9219,-5.9062,-5.9061,-5.9061,-5.9061,0,-5.862,-5.8674,-5.8718,-5.8771,-5.8805,-5.8864,-5.8878,-5.8912,-5.891,-5.8924,-5.8996,-5.9027,-5.9078,-5.9099,-5.9098,-5.9185,-5.9172,-5.9153,-5.9112,-5.919,-5.922,-5.9233,-5.9066,-5.9065,-5.9064,-5.9063,0,0,-5.8731,-5.8788,-5.8803,-5.8827,-5.8872,-5.8913,-5.8972,-5.9022,-5.905,-5.9089,-5.9136,-5.9208,-5.9191,-5.9219,-5.9222,-5.9261,-5.9338,-5.9237,-5.9238,-5.9252,-5.9433,-5.9445,-5.9459,-5.9331,-5.9334,-5.9336,-5.9429,0,-5.8824,-5.8926,-5.8933,-5.9025,-5.9074,-5.9064,-5.9115,-5.9148,-5.9163,-5.9206,-5.9223,-5.9272,-5.9247,-5.9263,-5.9303,-5.9321,-5.9374,-5.9315,-5.9374,-5.9376,-5.936,-5.9476,-5.9488,-5.9574,-5.9441,-5.9443,-5.9445,0,-5.8944,-5.8986,-5.9082,-5.912,-5.9141,-5.9187,-5.9233,-5.9276,-5.9313,-5.9321,-5.9354,-5.9351,-5.9411,-5.9372,-5.9453,-5.9413,-5.9438,-5.9451,-5.9455,-5.9457,-5.9412,-5.9478,-5.9602,-5.9614,-5.9465,-5.9463,-5.9462,0,-5.9011,-5.9092,-5.916,-5.9181,-5.9228,-5.926,-5.9281,-5.9316,-5.9346,-5.9387,-5.9406,-5.9455,-5.948,-5.9517,-5.9527,-5.9499,-5.9608,-5.9571,-5.9615,-5.9614,-5.9634,-5.9632,-5.9761,-5.9658,-5.9657,-5.9657,-5.9657,0,-5.9111,-5.9169,-5.9191,-5.9232,-5.9298,-5.9307,-5.9372,-5.9391,-5.9423,-5.9467,-5.9463,-5.9505,-5.9517,-5.9562,-5.9571,-5.9635,-5.9648,-5.9655,-5.9656,-5.9653,-5.9652,-5.9667,-5.9659,-5.966,-5.966,-5.9659,-5.9658,0,-5.9195,-5.9212,-5.9285,-5.9324,-5.9336,-5.9382,-5.9415,-5.9455,-5.947,-5.9527,-5.954,-5.9564,-5.9616,-5.9631,-5.9694,-5.97,-5.9775,-5.9772,-5.9762,-5.9761,-5.9803,-5.9797,-5.9942,-5.996,-5.9848,-5.985,-5.985,0,-5.9255,-5.93,-5.9345,-5.9374,-5.9397,-5.9445,-5.9475,-5.9487,-5.9519,-5.9566,-5.9599,-5.9651,-5.9692,-5.9776,-5.9798,-5.9846,-5.9842,-5.989,-5.9849,-5.9845,-5.9839,-5.9835,-5.9838,-5.9896,-5.9897,-5.9898,-5.9899,0,-5.936,-5.9366,-5.941,-5.9458,-5.9495,-5.9533,-5.957,-5.9594,-5.9611,-5.9647,-5.97,-5.9733,-5.9797,-5.9847,-5.9896,-5.9918,-5.9911,-5.9913,-5.9925,-5.992,-5.9911,-5.9913,-5.9779,-5.9908,-5.9907,-5.9907,-5.9906,-5.9906,-5.9432,-5.9471,-5.9508,-5.9557,-5.9586,-5.9621,-5.9659,-5.968,-5.9725,-5.9777,-5.9782,-5.9839,-5.9876,-5.9941,-5.9966,-6.001,-5.9996,-6.0014,-6.0018,-6.0022,-6.0023,-5.9907,-6.002,-6.0019,-6.0019,-6.0019,-6.0019,0,-5.9533,-5.9557,-5.9602,-5.9654,-5.9693,-5.9685,-5.9725,-5.9758,-5.9808,-5.9844,-5.9885,-5.9946,-5.9995,-6.0023,-6.0072,-6.0102,-6.01,-6.0115,-6.011,-6.0115,-6.0035,-6.0018,-6.0115,-6.0115,-6.0115,-6.0115,-6.0115,-6.0115,-5.959,-5.9654,-5.9666,-5.9745,-5.9769,-5.9824,-5.9848,-5.9879,-5.9907,-5.9975,-6.0016,-6.0035,-6.0067,-6.0119,-6.0164,-6.0171,-6.0187,-6.0203,-6.0207,-6.0131,-6.0121,-6.0111,-6.0095,-6.0207,-6.0207,-6.0284,-6.0284,-6.0285]},{"header":{"parameterUnit":"m.s-1","parameterCategory":1,"la1":30.2991,"la2":30.254,"lo1":-89.0895,"lo2":-89.0444,"dy":0.0017,"dx":0.0017,"nx":28,"ny":28,"refTime":"2024-04-08T03:00:00:Z","depth":0,"parameterNumber":3,"parameterNumberName":"V-component_of_WINDS"},"data":[0,0,0,0,0,0,0,0,0,0,0,0,0,0,0,0,0,0,0,0,0,0,0,0,0,0,0,0,0,0,0,0,0,0,0,0,0,0,0,0,0,0,0,0,0,0,0,0,0,0,0,0,0,0,0,0,0,0,3.7781,3.7781,0,3.7788,3.7788,3.7788,3.7748,3.7747,3.7746,3.7745,3.7751,3.7752,3.7753,0,0,0,0,0,0,0,0,0,0,0,0,0,3.7733,3.7734,3.7781,3.7781,3.7781,3.7788,3.7788,3.7788,3.7748,3.7747,3.7745,3.7744,3.7751,3.7752,3.7754,0,0,0,0,0,0,0,0,0,0,0,0,0,3.7748,3.7734,3.7781,3.7762,3.776,3.7788,3.7788,3.7788,3.7748,3.7747,3.7745,3.7743,3.775,3.7752,3.7754,3.7799,0,0,3.7759,3.776,0,0,0,0,0,0,0,0,3.7747,3.775,3.7765,3.7763,3.7761,3.7765,3.7773,3.7792,3.7749,3.7753,3.7745,3.7743,3.7757,3.7758,3.7763,3.78,3.78,3.776,3.7761,3.7762,3.7762,0,0,0,0,0,0,0,3.7746,3.7749,3.7783,3.7765,3.7763,3.7753,3.7753,3.7777,3.7764,3.7752,3.775,3.7751,3.7756,3.7762,3.7763,3.78,3.776,3.7761,3.7762,3.7763,3.7876,3.7878,0,0,0,0,0,0,3.7748,3.7749,3.7783,3.7784,3.775,3.7755,3.7756,3.7766,3.7764,3.7762,3.7752,3.7749,3.7759,3.7761,3.7763,3.7818,3.7762,3.7763,3.7764,3.7875,3.7877,3.7879,0,0,0,0,0,0,3.7747,3.7751,3.7783,3.7766,3.7769,3.7758,3.777,3.7767,3.7772,3.7764,3.7762,3.7761,3.7758,3.7761,3.7791,3.7818,3.7764,3.7766,3.7872,3.7875,3.7878,3.7927,0,0,0,0,0,0,3.7746,3.7751,3.7768,3.7766,3.777,3.7811,3.7771,3.7768,3.7776,3.7772,3.7771,3.7769,3.7757,3.7789,3.7793,3.7819,3.7767,3.787,3.7874,3.7877,3.7923,3.7931,3.7938,0,0,0,0,0,3.7744,3.7781,3.7769,3.7774,3.7791,3.7812,3.7814,3.78,3.7778,3.7795,3.779,3.7769,3.7814,3.7792,3.7797,3.7824,3.7868,3.7873,3.7877,3.792,3.793,3.7938,0,0,0,0,0,0,3.7786,3.778,3.7767,3.7805,3.781,3.7806,3.7827,3.781,3.7821,3.7816,3.7797,3.7798,3.7832,3.7831,3.7807,3.7869,3.7837,3.7843,3.7868,3.7878,3.7885,3.7885,3.7769,0,0,0,0,0,3.7799,3.7817,3.7812,3.7845,3.7848,3.7838,3.7846,3.7835,3.7838,3.784,3.7837,3.7842,3.7857,3.7867,3.788,3.7923,3.7923,3.7944,3.7951,3.7958,3.7963,3.7986,3.7996,3.7893,3.7893,3.7893,0,0,3.7827,3.7827,3.7839,3.7854,3.7856,3.7875,3.7839,3.7861,3.7875,3.7843,3.7872,3.7871,3.7874,3.7912,3.7928,3.7912,3.7991,3.7963,3.7968,3.797,3.7992,3.8002,3.801,3.7896,3.7895,3.7895,0,0,3.7889,3.789,3.7919,3.7922,3.7927,3.7919,3.7926,3.7926,3.7923,3.7953,3.793,3.7946,3.7972,3.7977,3.7982,3.8048,3.8029,3.8052,3.8092,3.8116,3.8124,3.8131,3.8155,3.8164,3.8057,3.8057,3.8057,0,3.7923,3.7952,3.7935,3.7959,3.7967,3.794,3.797,3.7974,3.7982,3.7988,3.797,3.8004,3.8004,3.8043,3.8059,3.8064,3.8072,3.8052,3.8124,3.8131,3.8137,3.8161,3.817,3.806,3.806,3.806,3.8059,0,3.7994,3.8014,3.8037,3.8047,3.8057,3.8084,3.8072,3.8085,3.8073,3.8067,3.8098,3.8098,3.8112,3.812,3.8108,3.8158,3.8148,3.8127,3.8095,3.815,3.8172,3.8181,3.8064,3.8063,3.8062,3.8062,0,0,3.8081,3.8083,3.8092,3.8097,3.8101,3.8116,3.8142,3.8156,3.8168,3.8174,3.8196,3.822,3.8202,3.8208,3.8196,3.8217,3.827,3.8194,3.8194,3.8209,3.8327,3.8343,3.8353,3.8258,3.826,3.8261,3.8327,0,3.8142,3.8187,3.8174,3.8219,3.8239,3.8214,3.8237,3.8242,3.8238,3.8254,3.8249,3.8267,3.824,3.8244,3.8264,3.826,3.8294,3.8255,3.8279,3.828,3.828,3.8364,3.8381,3.8443,3.8335,3.8336,3.8337,0,3.8219,3.8231,3.8278,3.828,3.8288,3.8309,3.8322,3.8337,3.8342,3.8338,3.8347,3.8331,3.8357,3.8325,3.8361,3.8335,3.8344,3.8344,3.8346,3.8348,3.8312,3.837,3.8462,3.8472,3.835,3.8349,3.8348,0,3.828,3.8307,3.8339,3.8344,3.8347,3.8363,3.8364,3.8368,3.8378,3.8389,3.8396,3.8409,3.8417,3.8428,3.8418,3.8395,3.8456,3.8422,3.8454,3.8454,3.8468,3.8468,3.8565,3.8473,3.8473,3.8472,3.8472,0,3.835,3.838,3.8367,3.8387,3.842,3.8406,3.8439,3.8438,3.8442,3.8462,3.8441,3.846,3.8443,3.8461,3.8452,3.8485,3.8488,3.8486,3.8483,3.8488,3.8489,3.8495,3.849,3.8475,3.8474,3.8474,3.8473,0,3.8424,3.8416,3.845,3.845,3.8451,3.8476,3.8476,3.8495,3.849,3.8516,3.8521,3.8513,3.8533,3.8523,3.8543,3.8537,3.8579,3.857,3.8578,3.8576,3.8609,3.8606,3.8714,3.8727,3.8625,3.8626,3.8627,0,3.847,3.8493,3.8496,3.8508,3.8512,3.8531,3.8542,3.8528,3.854,3.8549,3.8567,3.8585,3.8599,3.8632,3.8628,3.8644,3.8636,3.8673,3.8638,3.8643,3.8638,3.8638,3.864,3.868,3.8681,3.8682,3.8683,0,3.8552,3.8548,3.8564,3.858,3.8593,3.8604,3.8613,3.8624,3.8611,3.8626,3.8646,3.8657,3.8679,3.8697,3.8711,3.8713,3.8697,3.8694,3.8702,3.8708,3.8712,3.8712,3.8598,3.8691,3.869,3.869,3.8689,3.8689,3.8614,3.8634,3.8641,3.866,3.8666,3.8676,3.8694,3.8692,3.8709,3.8726,3.8717,3.8741,3.8747,3.8764,3.8769,3.8788,3.8773,3.8785,3.8788,3.8792,3.8797,3.8708,3.879,3.879,3.8789,3.8789,3.8789,0,3.8698,3.8701,3.8719,3.8733,3.8749,3.8732,3.8742,3.8756,3.8778,3.8785,3.88,3.8824,3.8842,3.8841,3.8858,3.8873,3.8866,3.8878,3.8878,3.8879,3.8808,3.88,3.8884,3.8884,3.8884,3.8884,3.8884,3.8884,3.8743,3.8776,3.8773,3.8809,3.8812,3.8837,3.8844,3.8853,3.8859,3.8888,3.8903,3.8902,3.8906,3.8923,3.894,3.8939,3.8947,3.8962,3.8959,3.8893,3.8883,3.8874,3.8867,3.8964,3.8964,3.9028,3.9028,3.9029]}]]